• In Netherlands
  • List of Countries
  • For 7 days
  • Water Temperature
  • Satellite Maps
  • Weather Map
  • Weather Widgets
  • user-avatar
    Login

    Hourly Weather Kapan

    Today, 21 February, Tuesday

    Time Temperature Precipitation Wind Pressure Humidity
    00:00 -3°C° 0 mm 2 mps 686 mmHg 69%
    01:00 -3°C° 0 mm 2 mps 685 mmHg 69%
    02:00 -3°C° 0 mm 2 mps 685 mmHg 69%
    03:00 -4°C° 0 mm 2 mps 684 mmHg 74%
    04:00 -4°C° 0 mm 2 mps 684 mmHg 74%
    05:00 -4°C° 0 mm 2 mps 684 mmHg 74%
    06:00 -4°C° 0 mm 2 mps 684 mmHg 73%
    07:00 -2°C° 0 mm 2 mps 684 mmHg 75%
    08:00 +1°C° 0 mm 2 mps 684 mmHg 76%
    09:00 +3°C° 0 mm 2 mps 685 mmHg 77%
    10:00 +4°C° 0 mm 2 mps 685 mmHg 75%
    11:00 +6°C° 0 mm 2 mps 685 mmHg 73%
    12:00 +8°C° 0 mm 1 mps 684 mmHg 71%
    13:00 +8°C° 0 mm 1 mps 684 mmHg 72%
    14:00 +8°C° 0 mm 1 mps 683 mmHg 72%
    15:00 +8°C° 0 mm 1 mps 683 mmHg 72%
    16:00 +6°C° 0 mm 1 mps 683 mmHg 76%
    17:00 +2°C° 0 mm 2 mps 682 mmHg 80%
    18:00 -1°C° 0 mm 2 mps 682 mmHg 83%
    19:00 -2°C° 0 mm 2 mps 682 mmHg 80%
    20:00 -2°C° 0 mm 2 mps 682 mmHg 77%
    21:00 -2°C° 0 mm 2 mps 682 mmHg 74%
    22:00 -2°C° 0 mm 2 mps 682 mmHg 73%
    23:00 -2°C° 0 mm 3 mps 682 mmHg 73%

    Tomorrow, 22 February, Wednesday

    Time Temperature Precipitation Wind Pressure Humidity
    00:00 -2°C° 0 mm 3 mps 682 mmHg 72%
    01:00 -2°C° 0 mm 3 mps 682 mmHg 72%
    02:00 -2°C° 0 mm 3 mps 682 mmHg 72%
    03:00 -2°C° 0 mm 3 mps 682 mmHg 72%
    04:00 -4°C° 0 mm 3 mps 682 mmHg 73%
    05:00 -4°C° 0 mm 3 mps 682 mmHg 73%
    06:00 -4°C° 0 mm 3 mps 682 mmHg 74%
    07:00 -1°C° 0 mm 3 mps 683 mmHg 72%
    08:00 +2°C° 0 mm 2 mps 683 mmHg 70%
    09:00 +4°C° 0 mm 2 mps 684 mmHg 67%
    10:00 +5°C° 0 mm 2 mps 684 mmHg 65%
    11:00 +6°C° 0 mm 2 mps 684 mmHg 62%
    12:00 +7°C° 0 mm 2 mps 684 mmHg 59%
    13:00 +7°C° 0 mm 2 mps 683 mmHg 60%
    14:00 +7°C° 0 mm 2 mps 683 mmHg 61%
    15:00 +7°C° 0 mm 2 mps 683 mmHg 62%
    16:00 +5°C° 0 mm 2 mps 683 mmHg 67%
    17:00 +3°C° 0 mm 2 mps 682 mmHg 72%
    18:00 +1°C° 0 mm 2 mps 682 mmHg 77%
    19:00 +1°C° 0 mm 2 mps 683 mmHg 76%
    20:00 -1°C° 0 mm 2 mps 683 mmHg 74%
    21:00 -1°C° 0 mm 2 mps 683 mmHg 73%
    22:00 -1°C° 0 mm 2 mps 683 mmHg 72%
    23:00 -1°C° 0 mm 3 mps 683 mmHg 71%

    Day after tomorrow, 23 February, Thursday

    Time Temperature Precipitation Wind Pressure Humidity
    00:00 -1°C° 0 mm 3 mps 683 mmHg 71%
    01:00 -1°C° 0 mm 3 mps 683 mmHg 71%
    02:00 -1°C° 0 mm 3 mps 683 mmHg 72%
    03:00 -1°C° 0 mm 3 mps 683 mmHg 72%
    04:00 0°C° 0 mm 3 mps 683 mmHg 73%
    05:00 0°C° 0 mm 3 mps 683 mmHg 74%
    06:00 +1°C° 0 mm 2 mps 684 mmHg 75%
    07:00 +2°C° 0 mm 2 mps 684 mmHg 72%
    08:00 +3°C° 0 mm 2 mps 685 mmHg 69%
    09:00 +4°C° 0 mm 2 mps 685 mmHg 66%
    10:00 +6°C° 0 mm 2 mps 685 mmHg 63%
    11:00 +7°C° 0 mm 2 mps 685 mmHg 60%
    12:00 +8°C° 0 mm 2 mps 685 mmHg 57%
    13:00 +8°C° 0 mm 2 mps 685 mmHg 57%
    14:00 +8°C° 0 mm 2 mps 685 mmHg 57%
    15:00 +8°C° 0 mm 2 mps 685 mmHg 58%
    16:00 +6°C° 0 mm 2 mps 685 mmHg 64%
    17:00 +4°C° 0 mm 2 mps 685 mmHg 71%
    18:00 +2°C° 0 mm 2 mps 685 mmHg 78%
    19:00 +1°C° 0 mm 2 mps 685 mmHg 77%
    20:00 +1°C° 0 mm 2 mps 686 mmHg 76%
    21:00 +1°C° 0 mm 2 mps 686 mmHg 75%
    22:00 +1°C° 0 mm 2 mps 686 mmHg 74%
    23:00 +1°C° 0 mm 2 mps 686 mmHg 73%

    24 February, Friday

    Time Temperature Precipitation Wind Pressure Humidity
    00:00 +1°C° 0 mm 2 mps 686 mmHg 73%
    01:00 +1°C° 0 mm 2 mps 686 mmHg 73%
    02:00 +1°C° 0 mm 2 mps 686 mmHg 73%
    03:00 +1°C° 0 mm 2 mps 686 mmHg 73%
    04:00 -1°C° 0 mm 2 mps 686 mmHg 73%
    05:00 -1°C° 0 mm 2 mps 686 mmHg 73%
    06:00 -1°C° 0 mm 2 mps 686 mmHg 72%
    07:00 +2°C° 0 mm 2 mps 687 mmHg 68%
    08:00 +4°C° 0 mm 2 mps 688 mmHg 64%
    09:00 +6°C° 0 mm 2 mps 688 mmHg 59%
    10:00 +7°C° 0 mm 2 mps 688 mmHg 57%
    11:00 +9°C° 0 mm 2 mps 688 mmHg 55%
    12:00 +10°C° 0 mm 2 mps 688 mmHg 53%
    13:00 +10°C° 0 mm 2 mps 688 mmHg 54%
    14:00 +10°C° 0 mm 2 mps 688 mmHg 55%
    15:00 +11°C° 0 mm 1 mps 688 mmHg 56%
    16:00 +9°C° 0 mm 1 mps 687 mmHg 63%
    17:00 +7°C° 0 mm 1 mps 687 mmHg 71%
    18:00 +5°C° 0 mm 1 mps 687 mmHg 78%
    19:00 +4°C° 0 mm 1 mps 687 mmHg 75%
    20:00 +4°C° 0 mm 1 mps 688 mmHg 73%
    21:00 +3°C° 0 mm 2 mps 688 mmHg 71%
    22:00 +3°C° 0 mm 2 mps 688 mmHg 69%
    23:00 +3°C° 0 mm 2 mps 688 mmHg 67%

    25 February, Saturday

    Time Temperature Precipitation Wind Pressure Humidity
    00:00 +2°C° 0 mm 2 mps 688 mmHg 65%
    01:00 +2°C° 0 mm 2 mps 687 mmHg 64%
    02:00 +2°C° 0 mm 2 mps 687 mmHg 63%
    03:00 +2°C° 0 mm 2 mps 687 mmHg 62%
    04:00 +2°C° 0 mm 2 mps 687 mmHg 62%
    05:00 +2°C° 0 mm 2 mps 687 mmHg 62%
    06:00 +2°C° 0 mm 2 mps 687 mmHg 62%
    07:00 +4°C° 0 mm 2 mps 688 mmHg 59%
    08:00 +5°C° 0 mm 2 mps 688 mmHg 56%
    09:00 +7°C° 0 mm 2 mps 689 mmHg 52%
    10:00 +9°C° 0 mm 2 mps 688 mmHg 50%
    11:00 +10°C° 0 mm 2 mps 688 mmHg 47%
    12:00 +13°C° 0 mm 2 mps 688 mmHg 44%
    13:00 +13°C° 0 mm 2 mps 687 mmHg 45%
    14:00 +13°C° 0 mm 2 mps 687 mmHg 46%
    15:00 +13°C° 0 mm 2 mps 686 mmHg 47%
    16:00 +10°C° 0 mm 2 mps 686 mmHg 53%
    17:00 +7°C° 0 mm 2 mps 685 mmHg 59%
    18:00 +5°C° 0 mm 2 mps 685 mmHg 65%
    19:00 +5°C° 0 mm 2 mps 685 mmHg 63%
    20:00 +4°C° 0 mm 3 mps 685 mmHg 61%
    21:00 +3°C° 0 mm 3 mps 685 mmHg 59%
    22:00 +3°C° 0 mm 3 mps 684 mmHg 59%
    23:00 +3°C° 0 mm 3 mps 684 mmHg 59%

    26 February, Sunday

    Time Temperature Precipitation Wind Pressure Humidity
    00:00 +3°C° 0 mm 3 mps 684 mmHg 58%
    01:00 +3°C° 0 mm 3 mps 683 mmHg 59%
    02:00 +3°C° 0 mm 3 mps 683 mmHg 60%
    03:00 +3°C° 0 mm 3 mps 683 mmHg 61%
    04:00 +2°C° 0 mm 3 mps 683 mmHg 62%
    05:00 +2°C° 0 mm 3 mps 683 mmHg 63%
    06:00 +2°C° 0 mm 3 mps 683 mmHg 64%
    07:00 +4°C° 0 mm 3 mps 683 mmHg 61%
    08:00 +5°C° 0 mm 3 mps 684 mmHg 57%
    09:00 +8°C° 0 mm 3 mps 684 mmHg 54%
    10:00 +9°C° 0 mm 3 mps 684 mmHg 52%
    11:00 +10°C° 0 mm 2 mps 684 mmHg 49%
    12:00 +12°C° 0 mm 2 mps 684 mmHg 47%
    13:00 +12°C° 0 mm 2 mps 684 mmHg 49%
    14:00 +12°C° 0 mm 2 mps 684 mmHg 51%
    15:00 +10°C° 0 mm 2 mps 684 mmHg 53%
    16:00 +8°C° 0 mm 2 mps 684 mmHg 61%
    17:00 +7°C° 0 mm 2 mps 685 mmHg 69%
    18:00 +6°C° 0 mm 1 mps 685 mmHg 77%
    19:00 +5°C° 0 mm 1 mps 685 mmHg 80%
    20:00 +4°C° 0 mm 1 mps 686 mmHg 82%
    21:00 +3°C° 0 mm 1 mps 686 mmHg 85%
    22:00 +3°C° 0 mm 1 mps 686 mmHg 86%
    23:00 +2°C° 0 mm 0 mps 685 mmHg 86%
    Show more